Theta_e
311 312 311 311 311 311 311 311 311 311 311 311 312 312 312 312 312 312 312 313 313 313 313 313 314 314 314 314 314 315 314 308 306 304 305 307 317 320 325 327 329 328 324 312 311 306 303 305 304 307 306 306 304 304 306 304 302 300 293 289 288 289 290 292 294 295 296 295 296 298 300 298 296 299 302 305 326 329 331 331 334 335 334 336 337 338 337 336
310 311 312 311 311 311 311 311 311 311 311 311 311 312 312 312 312 312 313 313 313 313 313 313 314 314 314 314 314 314 311 307 304 304 305 315 324 324 325 325 329 328 321 307 306 305 300 301 302 305 304 302 306 301 304 298 303 295 290 289 289 290 293 296 296 298 295 296 297 299 298 299 299 299 301 300 313 326 328 329 331 329 331 333 334 334 334 335
310 310 311 311 311 311 311 311 311 311 311 311 311 311 312 312 312 313 312 313 313 313 313 313 313 313 314 314 314 314 309 304 305 300 303 319 320 325 329 330 329 328 309 305 306 306 302 301 303 304 303 301 301 300 302 297 299 295 293 288 291 293 295 298 298 298 298 298 298 298 299 298 298 300 302 305 313 324 324 325 327 327 327 329 331 333 334 334
311 311 311 310 310 310 311 311 311 311 311 311 311 311 311 312 312 312 312 313 313 313 313 313 313 313 313 314 314 311 307 304 298 301 306 330 324 323 328 329 329 326 308 307 307 307 310 307 304 304 303 301 301 303 298 299 297 293 293 290 291 295 295 298 299 299 299 300 299 299 299 297 298 299 301 307 313 317 323 330 329 327 328 329 331 332 333 333
310 310 310 311 310 310 310 311 311 311 311 311 311 311 311 311 312 312 312 312 313 313 313 313 313 313 313 314 313 309 303 292 295 310 314 331 330 325 327 328 330 316 308 306 307 307 306 303 304 303 303 297 300 300 297 299 299 296 293 296 295 296 295 299 299 299 298 299 297 296 297 298 299 300 299 298 299 311 320 329 333 332 332 331 331 332 333 333
309 310 310 310 310 310 310 310 310 310 310 310 311 311 311 311 311 312 312 312 312 312 312 312 313 313 313 313 310 306 297 283 304 307 334 331 329 327 329 329 333 313 308 305 303 303 303 304 302 300 298 298 296 296 295 299 300 292 294 294 296 297 296 299 300 300 298 300 297 298 299 299 297 299 298 298 298 306 323 333 335 335 335 335 335 334 333 332
309 309 309 309 310 310 310 310 310 310 310 310 310 311 311 311 311 311 312 312 312 312 312 312 312 313 312 312 307 306 297 295 303 310 329 331 329 328 333 332 326 310 307 303 302 301 302 302 303 300 299 298 298 296 299 299 298 296 293 294 297 298 297 300 299 299 296 296 297 299 300 299 299 296 299 297 299 317 327 335 335 337 337 337 334 334 333 333
309 309 310 310 309 309 310 310 310 310 310 310 310 310 310 311 311 311 311 311 312 312 312 312 312 312 312 306 303 298 299 298 304 313 332 331 329 329 327 318 313 310 305 302 301 300 303 302 302 302 298 295 295 298 300 298 297 295 294 296 297 297 297 298 296 296 297 297 297 298 298 296 297 297 299 297 315 326 330 333 334 335 336 336 335 334 333 333
308 308 309 309 309 309 309 310 310 310 310 310 310 310 310 310 310 310 311 311 311 312 311 312 311 312 312 306 301 293 293 306 309 315 329 323 323 320 312 309 308 309 305 303 303 302 304 304 305 303 295 297 300 298 298 296 291 294 296 297 297 297 298 297 297 296 297 299 298 297 296 296 296 299 298 298 322 328 331 332 333 334 333 333 333 333 333 333
309 308 309 309 309 309 309 309 309 309 310 310 310 310 310 310 310 310 310 311 311 311 311 311 312 312 307 303 300 288 298 310 313 321 321 317 320 317 314 312 308 307 304 304 305 305 305 305 306 304 302 300 301 297 299 296 292 296 297 297 297 297 297 298 296 297 297 298 297 297 295 297 298 299 291 297 313 329 330 330 332 332 331 332 333 334 334 334
309 309 309 309 308 309 309 309 309 309 309 310 310 309 310 309 310 310 310 310 311 311 311 311 312 310 303 303 295 290 307 312 315 318 316 318 316 313 312 311 307 305 304 304 305 307 309 309 310 307 303 298 300 296 297 296 298 297 297 296 296 296 297 297 297 297 297 298 296 297 296 296 297 297 294 297 313 328 328 329 330 331 331 332 333 333 334 335
309 308 308 309 309 308 309 309 309 309 309 309 309 309 309 309 309 310 310 310 311 311 311 311 311 309 306 301 295 294 308 310 317 318 320 319 315 314 313 311 306 305 304 303 305 309 311 311 309 304 295 299 293 298 296 298 297 297 296 292 293 294 295 296 296 297 298 297 298 299 295 294 296 294 297 299 320 326 328 328 329 329 330 331 332 333 334 335
309 309 308 308 309 309 308 309 309 309 309 309 308 309 309 309 309 310 310 310 311 311 311 312 311 308 303 291 296 304 306 306 305 305 318 322 319 318 315 311 308 306 306 305 306 309 310 307 304 298 299 298 295 292 296 299 297 297 296 292 292 290 290 295 298 300 299 298 298 298 287 289 293 296 298 299 315 323 326 326 327 327 329 330 331 332 332 332
308 308 308 309 308 308 308 308 309 308 308 308 308 308 308 309 309 310 311 310 312 311 311 312 311 308 304 294 303 308 309 307 307 305 306 322 315 311 314 311 308 307 307 307 307 307 307 303 304 301 301 298 295 299 297 295 297 292 293 291 289 287 287 295 297 297 296 299 299 300 289 290 293 296 298 299 308 322 322 324 325 325 327 328 329 330 330 329
307 307 307 308 308 308 308 308 308 308 308 308 308 308 308 308 309 310 311 311 311 311 311 312 310 304 295 296 307 311 323 317 307 306 310 316 311 306 307 309 305 306 306 307 306 308 308 306 302 298 295 300 299 295 290 290 291 292 290 284 285 286 289 293 296 296 294 297 299 297 290 292 295 296 298 298 311 321 319 322 323 324 326 326 327 328 328 328
308 308 307 307 307 307 308 308 308 308 308 308 308 308 308 309 309 310 310 310 312 311 310 305 306 304 297 289 297 317 307 312 310 312 310 313 309 304 306 306 305 305 305 304 308 309 306 304 299 295 297 297 295 289 287 286 285 288 287 284 287 285 288 291 293 297 297 297 297 297 289 290 292 296 299 299 311 318 319 320 321 323 324 325 325 325 325 325
308 308 307 307 307 307 307 307 307 307 307 307 308 308 308 308 309 310 310 311 310 310 308 304 306 306 292 302 310 304 302 304 304 309 310 311 309 307 306 305 302 302 303 305 306 306 304 302 299 300 296 291 289 290 285 282 282 283 287 286 288 287 288 288 292 295 295 296 291 296 293 293 294 294 296 298 307 316 317 318 320 323 323 323 322 323 324 325
308 307 307 307 307 307 307 307 307 307 307 307 307 306 305 308 310 309 309 310 310 308 307 309 307 300 296 304 297 301 304 304 303 304 309 311 310 308 306 304 304 301 302 301 303 301 300 296 296 289 291 293 291 287 283 281 284 283 285 286 287 288 289 289 288 291 294 295 293 293 293 294 294 295 295 297 298 315 315 317 319 320 320 321 322 322 324 324
307 307 307 307 306 307 307 307 307 307 307 307 307 307 308 309 311 306 304 306 302 296 291 296 296 286 290 299 303 304 306 305 305 302 304 308 308 308 308 307 304 301 298 298 295 300 296 294 294 289 287 287 287 288 286 288 290 289 290 287 287 286 287 288 293 297 295 292 292 292 292 293 293 293 295 297 304 312 314 317 317 319 319 320 321 321 321 322
307 307 307 306 306 306 306 306 306 307 307 304 302 301 304 302 303 302 304 304 299 298 296 300 300 300 300 299 300 308 310 306 300 300 302 307 307 304 303 304 301 300 295 293 295 297 295 289 285 285 285 288 291 290 291 292 292 291 291 290 288 288 290 293 295 298 295 293 291 292 293 293 293 292 293 296 306 311 315 315 316 317 317 319 319 320 320 320
306 306 306 306 306 306 306 306 306 307 307 304 301 297 297 300 294 294 299 299 302 302 299 301 302 300 299 302 303 303 299 301 301 298 300 308 306 303 299 300 296 294 293 295 294 299 296 287 287 288 289 290 291 292 293 292 293 291 289 288 288 290 289 294 295 297 295 294 289 291 292 293 293 293 294 295 298 305 310 313 314 314 315 318 319 319 319 320
306 306 306 306 306 306 306 306 306 307 307 303 299 294 297 299 302 302 297 291 300 303 302 300 303 301 305 304 306 306 303 299 297 297 301 306 302 299 296 297 293 291 293 295 295 291 288 287 290 291 292 293 293 293 293 293 292 291 289 287 288 288 292 295 296 295 296 293 290 290 291 292 294 295 295 296 297 295 310 313 315 314 314 317 317 319 318 317
306 306 306 306 306 306 306 306 306 306 301 297 295 295 296 301 305 305 300 295 294 301 302 301 299 300 301 305 306 308 300 297 294 297 298 304 298 300 297 294 292 292 293 293 289 287 286 288 292 294 293 292 292 292 291 292 293 289 288 287 287 291 290 286 292 295 295 294 290 291 292 291 296 296 295 297 297 297 299 314 315 316 315 316 317 319 318 317
306 305 305 306 306 306 306 306 306 301 298 298 296 296 301 304 303 300 297 292 290 296 300 303 303 302 301 300 306 305 301 299 299 295 302 302 296 298 296 296 291 292 290 292 292 289 289 293 296 294 293 292 291 291 290 288 286 290 291 289 289 290 291 290 290 293 294 294 295 291 288 286 289 292 292 296 296 297 297 310 313 315 317 318 318 319 318 317
306 305 305 305 305 306 305 306 299 300 302 300 298 302 303 303 303 300 296 293 294 293 302 301 305 304 304 310 310 302 300 301 301 300 301 302 296 296 294 297 292 289 291 293 293 291 292 296 297 293 292 292 290 289 290 289 284 287 292 292 292 293 292 293 294 291 286 285 291 289 280 281 286 290 291 294 293 295 295 305 311 313 313 313 314 315 316 318
304 305 305 305 305 305 306 299 299 300 298 297 302 306 306 306 305 302 298 290 284 294 296 290 305 296 308 302 306 302 301 295 300 301 303 303 303 299 296 292 294 288 291 292 292 291 293 297 296 293 292 291 291 290 291 291 286 286 287 294 294 293 294 293 292 289 283 282 289 294 283 278 283 288 291 292 294 297 303 299 297 304 309 311 312 314 313 314
304 304 305 305 305 305 298 295 301 300 296 300 304 306 306 307 309 305 293 285 280 294 289 296 297 296 303 301 303 301 286 290 301 301 301 304 299 301 292 288 294 295 295 297 292 288 296 294 295 294 292 291 289 287 291 292 288 285 291 294 294 293 292 292 291 288 284 289 290 291 285 280 281 284 289 294 300 301 302 303 303 305 303 306 310 311 312 316
304 305 305 305 305 304 299 299 298 295 297 303 306 306 306 306 308 306 292 279 278 296 290 292 297 305 302 302 302 295 294 297 293 296 302 302 301 297 294 290 291 291 294 292 283 291 294 292 292 291 291 290 288 291 293 293 289 287 293 295 293 293 292 292 291 287 286 286 282 283 290 283 279 284 294 295 299 299 300 302 306 311 312 313 314 316 319 321
304 305 305 305 305 305 303 299 298 295 302 305 305 305 307 306 304 296 285 278 294 292 305 292 306 300 299 300 297 296 296 298 292 296 301 302 302 296 290 292 292 292 294 293 287 290 294 295 295 294 291 289 293 294 294 293 290 293 294 296 296 294 293 292 288 287 285 281 277 282 288 280 277 286 295 297 296 297 299 303 307 312 312 313 315 317 320 321
304 304 304 304 303 300 299 301 298 302 304 305 305 305 306 304 295 285 279 274 297 288 296 296 295 293 296 293 293 295 293 295 297 297 300 298 299 301 299 299 295 293 291 294 291 292 294 300 300 296 292 294 294 294 295 295 293 295 295 293 292 289 289 288 286 284 282 278 278 283 289 284 277 289 293 294 297 298 301 304 309 312 313 313 314 315 317 318
304 304 304 305 298 300 299 294 299 304 305 304 304 304 302 297 287 281 276 284 296 292 297 294 292 296 292 290 288 294 294 294 295 295 293 299 296 297 296 294 296 289 286 288 289 292 294 294 293 294 298 297 296 293 296 297 295 294 290 290 288 284 283 284 281 282 278 272 279 285 287 286 279 283 295 300 305 305 304 306 309 311 312 312 313 314 316 317
304 304 304 302 302 303 296 294 303 304 303 303 303 300 294 283 286 280 280 300 284 289 290 289 294 293 292 293 291 291 291 292 294 291 291 292 291 291 289 284 288 283 282 283 284 290 289 291 291 294 302 297 294 292 291 295 293 293 287 285 281 275 276 276 277 277 275 276 283 285 288 284 282 292 297 302 308 310 311 312 311 312 312 312 313 314 315 315
304 304 305 304 304 300 301 302 303 303 303 302 301 297 288 279 275 282 284 290 285 294 291 296 293 293 293 291 290 293 294 289 293 292 293 294 291 292 292 291 290 286 279 283 284 284 286 290 291 292 294 297 294 288 287 288 288 287 286 281 280 276 275 270 273 273 276 281 286 286 288 281 290 296 301 304 308 310 312 312 312 311 309 310 311 312 314 315
304 305 301 303 302 302 303 304 303 303 301 301 297 293 287 279 279 297 288 290 290 297 296 294 294 294 293 288 291 293 287 293 292 290 291 289 291 287 289 291 292 291 290 286 282 283 278 281 286 291 288 295 294 291 291 286 287 288 287 288 283 277 277 272 275 273 274 277 281 287 284 278 287 290 304 307 308 309 309 310 310 311 312 312 314 314 314 314
304 303 302 302 302 303 303 303 303 303 301 298 293 287 280 280 285 287 287 289 291 294 292 297 293 291 290 291 293 294 292 287 293 289 287 289 285 286 287 288 291 291 289 283 286 283 285 282 288 293 293 294 294 295 294 291 290 289 289 289 284 282 280 279 275 277 278 279 280 281 280 289 292 299 304 307 308 308 310 310 311 311 312 313 313 314 314 316
303 300 302 299 301 304 304 304 303 302 298 295 287 282 282 287 284 292 289 294 293 290 290 292 292 288 286 287 292 291 295 291 291 289 287 289 290 289 291 290 290 291 287 283 283 282 286 282 291 294 294 294 294 296 296 294 283 287 289 284 288 290 289 280 279 283 278 278 275 279 288 292 297 298 303 306 306 306 308 308 309 310 311 312 311 313 314 315
298 300 297 302 303 307 304 304 304 301 298 295 287 282 288 291 295 294 297 292 291 291 289 284 285 284 285 284 287 290 291 293 292 289 283 289 285 290 290 290 294 292 292 291 286 287 281 283 290 292 290 294 296 298 295 296 292 288 284 288 292 293 291 284 276 277 275 272 273 284 284 288 286 284 298 304 304 305 307 307 308 309 311 310 311 311 313 314
298 297 299 300 305 307 305 305 303 301 298 293 284 291 297 292 299 297 299 295 291 291 286 284 286 289 286 285 284 287 291 289 289 289 285 288 283 293 290 290 293 293 293 294 288 286 289 281 284 290 293 295 299 296 293 296 296 291 289 292 288 281 281 283 279 274 272 273 273 280 285 285 282 285 294 300 302 304 306 308 308 307 308 309 309 310 311 311
298 296 296 305 309 307 306 305 303 300 294 288 283 286 294 295 299 297 297 292 293 290 285 288 286 289 288 284 288 289 291 284 290 287 285 287 285 295 294 294 292 294 294 294 288 288 289 279 282 290 293 294 295 292 284 288 293 295 294 291 291 287 282 280 281 279 278 272 273 277 282 278 289 289 298 300 304 304 305 305 305 306 307 307 307 308 308 308
295 296 298 308 309 308 307 305 301 297 290 284 285 288 295 291 294 296 297 295 290 289 289 287 289 285 288 289 289 285 290 290 289 287 288 291 291 300 296 299 296 298 298 293 292 292 283 285 278 285 292 294 287 290 286 287 286 288 288 286 288 289 291 289 289 282 279 273 272 274 276 281 285 297 301 302 303 306 306 304 305 305 306 306 306 305 306 306
299 296 299 310 308 307 306 301 294 290 287 289 291 290 291 290 294 294 295 295 291 294 289 290 288 285 289 286 286 289 287 288 292 290 290 294 292 287 299 298 299 297 297 291 291 291 284 284 281 283 285 285 289 295 293 293 292 288 287 285 287 284 284 281 278 285 284 280 276 275 272 279 290 304 303 303 305 305 306 304 304 304 305 304 304 304 304 304
297 292 298 310 308 306 300 291 290 293 289 287 285 290 289 299 294 293 294 293 294 290 294 291 292 291 288 289 289 288 287 287 289 291 293 290 297 294 300 302 299 300 294 288 292 298 290 285 284 282 284 285 291 297 300 298 296 293 292 292 291 287 285 279 278 278 283 285 284 280 281 281 296 305 305 304 303 303 304 304 303 304 303 303 302 303 303 303
297 295 309 311 310 304 294 286 290 288 287 290 295 293 294 293 293 294 291 293 291 293 291 290 291 289 291 289 289 287 289 287 289 290 294 295 296 298 302 302 303 300 297 293 296 296 308 282 283 282 285 289 293 298 301 302 301 299 298 299 295 290 287 284 280 281 282 283 281 278 278 283 297 306 304 303 303 303 304 303 301 301 302 301 301 301 301 300
299 296 298 309 311 303 291 282 282 281 285 290 292 291 295 293 294 292 292 292 291 291 290 291 290 292 291 291 289 287 290 281 290 291 290 295 294 302 303 304 305 300 299 294 293 297 285 286 281 278 278 282 286 290 292 297 298 295 295 296 297 295 293 289 288 285 282 284 282 280 276 284 297 304 303 301 301 300 300 301 300 298 298 298 299 300 300 300
298 302 302 304 307 300 289 291 288 284 288 291 293 292 293 295 296 294 293 292 294 292 291 290 292 293 291 293 290 291 291 289 285 290 294 295 296 302 302 304 306 303 307 308 310 301 289 288 281 277 275 274 276 278 281 284 288 292 297 297 296 295 291 287 284 281 281 284 286 282 283 290 299 300 299 299 298 298 299 299 299 298 297 296 297 298 298 298
295 285 295 298 301 298 298 300 296 293 288 289 284 287 293 290 294 295 294 294 294 294 291 293 292 292 290 290 289 289 289 293 291 290 289 291 295 299 301 304 307 306 309 313 309 299 290 292 286 280 278 278 279 287 292 291 291 287 292 294 295 295 293 289 284 281 282 282 282 286 290 292 294 295 295 296 296 295 295 296 295 296 296 297 297 297 297 297
300 290 288 288 296 296 294 295 295 295 286 290 284 290 288 291 292 294 294 289 293 292 293 292 292 289 289 288 287 287 290 290 294 293 292 293 296 298 300 302 304 309 309 305 307 293 287 287 292 289 288 288 291 293 295 296 292 292 291 291 294 293 291 287 280 284 286 283 281 291 296 293 292 294 293 293 293 293 293 293 294 294 294 295 295 296 297 296
290 294 298 296 289 283 287 287 295 294 296 296 288 293 290 290 290 286 292 294 293 294 288 289 291 291 290 290 288 282 286 289 290 286 295 294 293 294 294 299 299 306 305 301 302 294 286 283 291 290 290 293 295 294 294 294 293 292 292 291 291 292 292 290 288 290 287 281 282 292 296 290 289 291 292 292 292 291 292 292 293 294 294 294 294 294 294 295
300 297 297 301 290 292 292 294 298 295 293 295 288 292 289 290 289 292 291 291 292 291 290 281 287 291 292 292 288 284 288 280 283 291 291 291 291 289 288 291 298 300 302 300 299 296 288 285 289 290 289 292 294 293 293 292 291 291 290 291 292 291 290 291 290 291 289 286 292 294 291 288 290 290 292 293 293 293 292 293 293 293 292 293 292 292 293 293
295 294 292 297 297 294 294 294 294 294 290 295 287 289 292 291 290 292 294 290 284 289 294 288 291 292 292 293 291 286 289 288 288 283 293 290 288 290 289 290 289 294 299 297 300 298 292 286 292 290 285 286 291 292 292 291 290 288 289 290 291 290 290 290 289 290 292 290 291 289 287 285 289 291 290 293 293 293 292 291 291 292 292 292 291 291 292 293
301 303 302 295 289 291 293 294 293 292 289 288 286 290 291 293 291 294 292 295 291 290 292 290 293 291 293 293 292 291 293 292 292 292 293 289 286 292 289 291 295 291 295 295 296 295 292 287 292 287 284 284 290 289 289 289 289 287 287 288 289 290 287 289 287 290 291 289 290 289 285 284 288 291 291 292 291 291 290 290 290 290 291 291 290 291 291 292
306 307 305 298 289 294 291 293 292 289 285 285 289 291 291 290 296 294 285 291 294 294 294 293 292 290 289 291 291 293 295 295 295 295 294 293 293 296 295 295 291 289 289 292 294 289 290 288 285 285 284 282 286 291 290 288 286 285 284 286 289 291 292 292 292 291 291 293 289 286 285 289 290 291 288 288 289 289 290 290 290 290 291 291 290 290 291 291
Wind_Speed
10 10 10 10 9 9 10 10 10 10 10 9 10 10 10 11 11 11 11 11 11 12 12 12 11 12 13 14 15 16 14 9 11 6 5 16 7 12 8 6 7 11 11 1 0 2 0 1 2 2 1 1 2 0 3 2 3 1 2 5 6 4 4 4 3 1 3 1 5 4 1 5 4 6 3 6 9 10 10 10 5 14 13 8 9 13 14 12
10 11 11 10 10 10 10 10 10 10 11 11 11 11 11 11 12 11 12 11 12 12 12 12 12 12 12 13 15 16 12 7 10 11 19 7 13 12 13 14 9 11 12 2 4 4 4 3 4 3 2 0 1 2 2 2 3 4 2 4 9 5 5 2 1 8 3 0 2 1 3 4 1 2 1 5 1 11 10 9 10 12 11 13 12 12 12 11
10 10 11 11 11 11 11 11 11 10 11 11 11 11 12 12 12 12 12 12 12 12 13 13 12 12 12 13 14 15 10 6 5 12 18 18 22 16 11 11 11 16 12 5 5 6 7 6 4 4 1 1 2 4 1 4 2 5 5 5 9 3 3 5 3 6 6 3 2 2 1 4 4 1 1 3 4 5 11 9 7 12 12 11 12 12 12 11
11 11 11 11 11 11 12 12 12 11 11 11 11 11 12 13 13 13 13 13 13 13 13 13 13 12 12 13 13 10 3 4 4 6 3 3 16 20 16 13 14 15 6 1 4 6 1 0 2 4 2 3 3 1 2 5 1 3 4 7 4 4 4 8 1 5 9 2 1 1 1 5 5 4 3 5 7 1 2 8 14 15 15 14 14 13 11 12
12 12 12 12 12 12 12 12 12 12 12 12 12 12 12 13 13 13 14 14 14 13 14 14 14 13 13 13 15 3 2 3 3 2 3 8 12 19 16 13 13 9 8 2 2 1 0 1 1 2 1 2 2 0 4 4 4 2 5 6 5 5 3 10 5 7 5 3 2 3 6 1 4 4 1 2 5 5 8 7 13 19 19 19 16 14 12 13
12 12 12 13 13 13 12 12 12 12 12 12 12 13 13 13 13 14 14 14 14 14 14 13 14 14 14 15 5 2 1 1 2 5 5 5 11 16 14 13 11 7 4 1 3 2 3 2 3 1 3 3 3 6 4 6 3 7 6 4 7 6 6 6 5 3 3 0 2 1 1 1 3 2 5 3 1 5 3 9 13 16 17 17 15 14 13 14
12 12 12 13 13 13 13 13 13 12 12 13 12 13 13 14 14 14 14 15 14 14 14 13 13 14 14 11 1 3 2 10 6 4 6 6 11 13 11 10 9 7 5 4 3 4 4 2 3 4 3 5 6 6 9 1 5 7 9 4 8 9 10 12 2 5 5 8 4 3 1 0 0 1 3 3 3 4 9 11 13 14 13 14 14 13 14 14
12 12 12 13 13 13 13 14 14 13 13 13 13 13 13 14 14 14 14 15 15 14 13 12 12 12 11 5 2 1 1 9 16 4 7 8 7 8 10 5 8 6 8 9 8 7 4 4 7 3 5 6 4 7 3 4 4 8 10 9 7 5 7 9 6 6 4 5 4 4 4 4 4 2 1 4 2 7 12 12 13 14 14 11 13 12 11 10
12 12 13 13 13 13 13 14 14 14 14 14 14 14 13 14 14 15 15 15 15 14 13 12 11 10 5 3 3 3 7 9 7 6 9 9 7 7 9 6 5 10 6 5 6 5 4 4 4 6 5 7 6 5 2 1 7 4 10 6 5 5 6 6 4 6 9 5 4 4 4 4 6 2 3 3 5 8 11 10 12 13 13 11 11 10 10 10
13 13 13 14 14 13 14 14 14 14 15 15 15 15 14 14 14 15 15 15 14 14 13 10 9 8 3 4 1 1 8 7 4 10 11 10 8 8 5 1 9 7 6 7 5 6 9 6 6 3 4 5 3 5 1 2 6 4 6 6 9 8 5 4 5 2 3 2 4 4 5 3 2 3 4 5 7 10 11 11 10 13 13 12 11 10 9 12
13 14 13 14 14 14 14 14 14 14 15 16 16 15 15 15 15 15 15 15 15 14 11 9 7 6 3 2 4 6 8 4 1 6 12 10 11 8 10 7 10 9 7 5 9 12 7 6 4 4 2 4 2 4 3 4 2 6 6 7 6 7 6 6 3 5 1 2 4 4 3 3 1 4 7 5 8 13 14 13 11 9 11 10 10 11 10 11
14 14 14 15 15 14 14 15 15 15 15 16 16 16 16 15 16 16 16 15 15 13 10 8 5 1 1 3 4 10 3 3 4 4 0 10 8 11 8 8 11 10 10 9 11 8 7 7 1 2 4 3 2 1 4 2 3 5 5 4 6 4 4 2 5 4 3 1 3 3 2 3 2 5 6 6 11 12 14 13 11 9 8 7 9 9 10 12
14 14 14 15 15 15 15 15 15 16 16 16 17 17 17 16 17 17 16 15 13 12 10 4 2 0 3 2 11 15 10 9 9 7 3 5 2 3 5 6 11 7 10 10 8 7 6 4 3 4 3 0 1 0 3 2 4 4 1 4 3 4 5 8 2 1 1 3 5 4 4 8 6 8 8 4 11 9 12 11 9 8 8 7 7 9 8 7
14 15 15 15 15 16 15 15 16 16 17 17 18 17 17 17 17 17 16 16 15 11 6 3 1 3 3 7 7 3 6 8 8 8 9 8 5 4 6 5 8 7 4 4 4 3 3 3 8 6 1 3 2 2 5 4 2 0 4 2 1 3 6 2 1 1 2 3 7 5 4 10 7 10 8 4 13 14 12 11 10 8 8 7 6 8 9 8
14 14 15 15 16 15 16 16 16 17 17 18 18 18 18 18 18 17 17 14 11 8 4 1 2 4 2 9 7 13 19 6 8 10 7 8 9 1 5 5 7 8 7 6 3 2 3 6 1 2 2 2 1 2 5 3 2 2 1 3 3 3 9 3 3 3 7 2 6 5 5 11 8 8 9 4 12 16 14 11 10 8 9 8 8 7 8 8
14 14 15 15 15 16 16 16 16 17 17 19 19 20 20 19 18 18 16 13 13 10 4 2 3 3 3 9 6 8 5 4 7 14 10 10 9 4 5 8 5 6 6 4 6 4 4 2 1 3 0 2 0 0 3 5 5 3 4 3 2 2 5 8 5 7 9 2 2 9 7 2 4 10 9 4 12 15 13 11 8 10 9 9 7 6 4 5
14 14 15 16 16 16 16 16 16 17 18 18 20 19 20 19 18 16 13 11 5 4 3 3 5 1 1 4 6 4 5 4 4 4 7 10 9 6 3 3 3 5 5 5 3 6 2 1 1 0 2 2 2 2 1 3 5 5 2 2 3 3 1 4 8 3 5 7 4 8 7 8 4 4 4 4 10 11 15 13 12 11 8 7 5 5 7 7
15 15 15 16 16 16 16 17 16 17 18 18 17 19 18 20 16 10 7 4 4 3 3 0 2 1 10 5 6 6 1 3 3 5 11 10 9 7 4 3 2 5 2 3 3 1 1 0 1 4 2 0 2 3 5 7 7 4 1 2 6 2 3 7 3 3 5 9 10 8 9 11 9 6 5 9 8 16 16 15 14 10 7 7 8 8 9 8
15 15 16 16 16 16 16 16 16 17 17 16 18 21 18 12 2 4 0 3 3 2 1 2 5 4 1 7 9 6 3 3 3 6 7 7 3 3 3 2 3 5 2 3 3 1 1 1 2 2 5 3 4 6 7 7 2 2 2 3 2 3 5 4 7 10 7 7 10 10 12 11 7 5 8 8 4 13 10 10 8 7 8 9 9 7 6 6
15 16 16 17 16 16 16 16 15 16 16 11 9 8 1 1 2 1 1 3 7 6 2 5 11 5 11 5 2 2 4 2 5 5 3 5 4 5 3 4 1 3 5 5 0 3 3 3 4 7 7 5 3 5 7 9 4 4 4 3 4 5 5 5 9 9 7 9 9 12 9 6 3 5 6 3 7 5 12 12 11 11 11 9 6 6 6 6
16 16 16 17 17 16 17 16 15 13 14 8 9 5 2 1 1 1 5 8 9 10 11 7 15 14 13 4 9 4 5 2 4 5 7 4 3 7 4 5 3 5 3 6 5 1 4 4 8 8 7 8 7 5 4 5 4 5 5 5 8 5 8 6 9 7 5 6 4 4 6 7 5 6 3 1 8 7 6 8 7 7 6 7 8 8 9 5
15 16 16 16 17 17 17 16 15 14 8 4 4 4 6 6 2 2 2 6 6 13 12 14 7 13 15 14 16 7 4 4 7 5 4 7 3 7 3 4 5 9 3 2 1 1 3 8 9 10 8 5 5 4 4 4 5 4 3 5 6 6 4 9 7 2 0 6 5 4 5 4 7 5 3 4 1 5 11 13 14 12 9 8 9 9 6 4
16 16 17 16 17 18 17 17 14 13 6 2 3 4 7 8 3 4 3 4 8 7 11 11 11 15 18 10 9 4 7 5 8 7 6 6 4 8 5 5 7 5 3 4 7 3 3 7 12 10 5 5 5 5 5 4 2 3 4 2 8 4 2 6 5 8 9 2 4 6 9 5 6 4 5 3 5 1 7 13 13 13 14 14 12 11 10 9
15 16 16 16 17 17 18 17 16 7 2 7 8 10 7 6 6 8 6 2 5 4 11 12 13 8 13 10 3 10 7 4 4 9 4 7 7 5 3 7 4 5 7 7 7 8 10 9 8 6 6 7 7 6 4 3 6 4 5 6 8 5 3 4 4 7 5 6 2 4 4 4 4 4 5 7 3 2 1 8 6 8 13 16 14 9 9 13
15 15 16 16 16 18 18 19 6 2 3 3 8 11 12 13 8 3 1 3 2 6 6 7 7 7 13 4 5 1 3 1 7 5 6 10 4 4 5 2 3 6 6 7 6 7 10 12 2 5 6 6 6 6 7 6 6 4 5 10 10 7 6 4 1 7 7 4 1 5 2 3 5 6 6 7 4 7 4 3 5 8 6 2 2 7 8 2
15 16 16 15 17 18 19 5 1 7 8 6 6 4 8 7 8 5 2 1 5 4 3 5 9 8 5 4 5 4 3 4 6 5 9 9 8 7 3 2 3 8 8 4 6 4 9 2 7 7 8 8 8 8 7 8 8 4 5 10 10 6 3 2 2 4 1 0 3 1 2 1 5 3 2 5 8 11 9 8 1 6 4 3 4 3 2 6
15 15 16 15 15 15 7 1 4 9 5 2 3 11 10 11 3 3 2 2 2 3 6 3 8 1 6 6 8 6 4 6 2 5 8 6 8 4 6 5 3 2 4 2 1 6 3 5 8 7 7 9 6 6 6 11 7 4 3 4 3 1 3 4 2 3 3 2 4 4 5 3 1 5 4 6 14 11 12 9 10 10 4 5 4 3 6 7
14 15 16 15 15 11 5 7 9 5 8 6 9 10 12 9 5 2 1 1 2 4 4 4 4 1 1 6 9 6 4 3 3 5 11 8 5 3 4 8 7 8 5 4 7 7 4 5 7 7 7 7 8 11 6 11 7 4 5 6 4 4 4 1 0 2 2 1 6 4 1 2 1 4 6 5 10 10 9 9 12 13 13 13 13 11 10 8
15 15 16 15 16 16 8 4 3 8 4 7 10 11 8 9 1 3 2 1 2 2 1 6 1 4 1 6 8 6 5 3 5 5 5 5 8 5 5 6 6 6 4 6 8 4 2 8 10 11 9 9 9 10 8 11 6 5 7 4 1 1 0 1 2 4 1 4 1 3 1 2 2 8 8 5 9 7 5 8 11 12 12 11 11 12 12 12
15 15 15 15 12 5 2 1 8 9 8 9 10 14 11 2 2 1 2 2 2 0 1 0 2 7 3 8 5 6 7 3 2 3 7 7 8 2 2 4 5 3 3 1 5 8 7 4 4 3 6 9 10 11 8 9 7 2 4 1 0 1 2 2 4 3 3 1 4 5 1 3 1 5 6 5 1 1 1 5 8 11 12 12 12 12 10 10
14 15 14 13 6 5 6 6 8 3 4 9 13 11 1 2 2 1 1 3 2 2 1 2 2 6 5 10 7 7 9 4 1 5 4 5 5 4 1 1 2 2 2 1 4 6 4 3 2 3 7 3 7 4 6 9 5 6 2 3 1 6 4 3 3 5 1 2 5 6 2 5 2 1 5 4 3 4 5 7 10 14 13 12 10 10 11 10
14 15 16 10 8 7 5 6 2 6 9 11 11 3 3 1 2 3 4 3 1 2 3 5 3 6 10 8 6 8 8 4 1 5 7 7 5 8 5 5 4 3 3 0 7 4 6 6 3 6 5 7 2 5 2 2 4 5 7 7 5 3 2 3 3 3 1 2 3 2 1 4 6 1 3 3 9 11 9 8 8 8 8 8 9 9 7 5
13 14 20 13 11 8 13 14 11 9 11 11 5 3 2 2 3 4 3 2 0 2 2 5 7 8 8 8 6 7 6 5 3 3 7 8 7 8 4 6 4 6 3 4 4 2 7 4 3 5 5 1 6 5 1 3 1 5 4 5 4 2 1 1 1 0 2 5 6 2 3 3 1 3 7 7 9 10 10 9 9 9 8 8 8 7 7 6
15 16 11 9 9 11 9 6 6 4 7 7 1 2 1 1 3 4 4 1 2 5 2 2 6 5 10 8 7 6 4 6 4 4 7 6 8 6 5 5 4 1 2 0 3 5 1 5 6 2 2 2 4 6 9 6 6 7 5 7 7 6 3 2 2 3 5 6 4 1 1 4 5 2 1 5 7 8 8 8 7 9 9 9 8 9 8 6
17 16 11 9 8 11 13 11 5 3 3 3 4 2 4 5 1 1 1 2 2 4 6 4 7 7 6 5 4 8 6 3 7 6 6 8 7 4 7 6 5 4 2 3 3 2 7 6 6 6 5 3 6 4 6 5 4 1 3 7 6 4 7 1 5 4 2 0 1 3 1 0 7 4 4 4 4 8 7 8 10 10 9 8 10 10 10 8
14 6 6 6 4 6 10 8 7 4 2 2 4 1 5 3 1 1 1 3 4 4 8 5 5 7 5 4 3 3 7 1 4 3 4 11 10 9 7 4 6 9 5 7 4 2 1 2 4 5 3 5 6 4 3 6 4 4 4 2 7 7 8 2 2 1 3 3 2 2 2 1 0 4 7 7 10 8 7 9 12 12 9 10 8 7 7 7
8 9 5 4 6 4 8 9 8 7 2 3 2 4 4 4 6 6 2 4 6 5 3 6 4 3 3 5 3 7 6 3 3 4 3 3 2 6 6 7 9 8 10 8 3 4 4 5 5 0 4 6 5 9 3 6 7 4 2 8 1 4 5 6 5 1 2 4 4 2 7 5 4 3 2 8 10 8 10 10 9 8 8 11 10 9 10 10
10 7 8 7 7 8 9 11 11 5 2 2 1 3 2 4 1 5 5 5 3 3 4 4 3 5 2 1 2 5 6 10 6 5 4 7 2 3 5 3 7 9 11 8 5 3 3 4 5 3 7 4 1 4 2 1 2 9 7 3 4 1 1 3 4 1 1 2 2 2 0 0 2 2 0 6 8 8 9 9 11 12 11 11 10 11 11 11
5 4 5 5 8 11 11 11 7 5 2 3 1 2 4 4 7 9 7 4 2 1 5 4 2 1 2 3 2 4 8 8 9 7 6 3 2 1 0 2 4 11 9 12 5 2 2 3 4 3 2 2 3 4 4 4 2 1 3 2 1 5 3 2 6 5 6 4 2 1 2 2 0 0 1 3 7 8 9 11 12 12 11 9 10 8 10 9
3 2 1 2 12 11 11 8 3 2 1 4 4 3 3 6 7 9 6 0 1 2 0 2 2 3 4 0 1 2 2 2 13 4 5 2 4 1 2 4 1 0 1 10 5 5 3 1 1 4 3 2 1 1 7 8 6 2 1 0 0 2 3 4 1 5 5 5 5 4 0 2 1 2 2 3 4 7 9 10 8 9 10 10 8 7 7 9
3 1 1 3 10 12 9 3 3 2 2 3 1 2 8 4 6 5 6 1 1 1 2 1 1 3 0 4 6 4 3 4 2 0 2 2 3 3 1 1 0 2 2 4 3 2 2 2 5 5 3 1 2 4 7 10 10 7 8 7 8 4 2 4 6 3 3 3 3 5 2 1 3 0 5 4 5 8 8 9 9 10 10 8 6 7 8 9
3 1 3 3 9 13 7 4 1 1 1 2 2 1 4 5 7 9 2 2 2 1 1 2 1 1 2 2 1 4 3 3 2 3 5 5 3 2 1 1 5 2 4 2 2 1 3 2 2 3 5 5 3 10 9 5 5 7 6 2 0 1 5 4 3 3 3 2 6 4 7 1 2 4 6 6 7 8 7 8 9 9 9 8 6 7 9 9
1 1 2 1 5 5 6 1 1 0 2 3 4 9 9 7 4 6 3 5 4 2 2 2 1 2 1 2 3 3 4 3 3 4 3 5 4 5 6 4 7 6 4 3 3 1 6 1 3 4 5 4 2 7 17 10 8 6 4 3 4 1 2 5 6 5 6 1 2 1 3 2 2 6 6 9 8 7 6 7 8 8 7 7 8 10 10 10
3 2 5 4 1 3 4 2 2 2 3 5 4 8 7 7 8 2 2 3 2 4 2 1 4 3 1 4 1 3 5 2 5 4 5 3 3 6 7 7 7 3 3 2 2 3 1 1 3 1 1 3 1 2 8 6 8 3 1 4 2 0 4 2 4 2 6 1 5 6 5 4 2 8 6 9 9 9 9 9 7 8 6 5 5 5 6 6
2 1 2 4 2 3 3 3 1 0 2 3 3 4 2 2 2 3 2 3 2 3 3 3 1 1 3 2 3 3 6 4 1 6 3 3 3 2 8 8 10 6 3 3 3 0 6 0 2 3 5 5 4 5 1 1 3 1 2 7 6 8 3 1 0 2 4 0 6 5 3 1 9 8 9 9 9 10 9 9 9 8 7 6 7 6 5 5
1 2 1 1 1 2 2 1 1 2 2 2 2 4 2 2 3 3 5 1 1 2 3 1 1 3 3 6 5 4 5 6 5 1 3 3 3 3 3 6 7 4 5 11 8 3 2 2 3 3 6 7 3 4 2 4 3 5 2 6 8 4 5 7 5 4 4 3 5 3 10 13 10 8 9 8 8 9 8 9 9 8 8 7 6 6 6 6
1 1 1 1 1 1 3 1 2 2 2 2 0 1 2 1 2 1 4 1 2 2 2 3 1 2 2 4 1 2 1 4 6 7 4 2 1 0 4 4 5 7 6 5 9 4 4 6 5 4 6 4 3 5 3 6 9 3 4 5 8 8 3 7 2 1 4 8 2 1 11 12 9 10 8 8 9 9 8 8 8 8 8 8 7 7 8 8
2 2 1 3 1 3 2 6 6 6 6 2 3 1 2 2 3 2 3 1 1 4 2 5 6 4 3 2 1 1 2 4 3 2 1 2 1 5 4 7 6 5 6 2 4 4 4 3 4 3 5 8 10 10 10 10 9 7 8 7 8 7 12 6 1 2 1 2 7 10 12 10 8 8 8 8 8 8 7 7 7 6 7 7 7 8 10 11
1 1 3 1 0 2 4 3 1 4 5 4 3 2 1 3 3 1 0 3 3 3 2 1 4 7 9 6 5 2 4 1 2 2 1 1 2 1 3 3 3 4 5 3 5 2 5 3 2 1 8 8 7 8 8 14 7 11 9 8 5 9 7 6 5 6 3 0 8 14 13 11 8 8 9 8 7 7 7 6 6 7 7 7 6 8 10 11
2 0 2 4 2 3 2 2 2 2 4 3 3 2 0 0 0 2 3 3 1 3 2 6 3 7 7 8 7 5 3 1 3 2 0 2 3 1 1 1 1 4 4 3 1 4 3 1 2 2 6 5 5 7 8 9 9 11 10 9 7 4 8 7 3 5 7 12 13 14 14 10 5 7 9 8 7 7 7 7 6 6 6 6 7 9 9 9
2 2 1 3 4 3 1 1 3 4 2 1 2 3 2 0 1 2 0 1 1 1 2 2 2 5 6 9 8 5 3 3 2 3 3 3 1 2 2 2 2 1 2 2 2 1 5 2 1 2 7 2 4 5 7 11 14 14 12 12 12 7 7 7 5 4 2 9 11 11 8 6 6 7 10 9 9 8 8 6 5 5 7 7 8 8 8 8
3 2 1 2 1 4 3 2 0 5 3 5 4 3 1 4 2 3 1 4 5 4 3 3 1 8 3 8 5 2 3 3 2 1 1 1 2 1 0 3 2 2 0 2 0 2 3 6 4 2 5 2 2 1 2 1 4 6 6 7 8 5 5 5 8 10 7 2 9 7 5 8 8 7 11 9 9 8 7 5 5 6 6 7 7 7 7 7
Wind_Direction
319 320 320 318 321 319 320 320 321 323 323 323 322 320 319 320 320 320 319 320 319 320 322 324 329 333 337 335 332 330 333 326 310 295 229 239 187 222 192 229 207 202 187 147 277 121 162 142 183 272 11 85 256 192 225 199 180 102 196 207 250 218 260 221 218 251 294 355 312 14 341 75 25 334 314 65 53 83 67 61 46 34 42 48 70 105 127 141
316 317 321 319 316 319 319 318 319 321 321 322 325 324 322 321 320 320 321 320 322 320 322 323 328 335 337 337 336 333 336 304 290 272 240 208 192 206 221 231 228 156 146 209 182 185 145 185 211 142 139 265 227 226 162 252 151 168 216 173 237 187 232 128 318 317 328 237 247 276 52 42 352 277 335 75 65 96 74 52 68 81 69 74 86 108 128 143
315 314 315 316 316 318 318 316 316 319 321 322 323 323 322 320 320 320 320 323 321 324 323 324 330 337 339 340 335 339 333 312 272 265 266 230 219 196 194 197 163 151 161 169 205 184 185 186 168 133 168 219 275 229 167 258 142 217 185 226 240 215 277 279 238 268 268 229 45 349 358 56 315 289 42 93 117 100 120 120 78 106 117 115 125 134 141 147
322 318 316 311 313 315 314 314 317 322 319 320 321 322 322 321 321 320 320 321 323 324 326 327 330 338 339 337 339 333 329 265 278 252 252 359 203 195 176 165 162 170 175 180 165 178 210 13 158 152 147 193 284 194 254 248 153 259 167 215 233 218 250 266 191 247 265 177 205 271 19 25 328 294 91 155 79 38 174 165 146 151 148 145 150 149 150 149
316 317 315 317 314 312 312 314 316 320 318 318 320 321 321 320 319 319 319 320 322 325 327 328 333 336 340 339 331 7 9 14 265 238 284 308 193 184 174 164 165 169 179 153 128 215 30 68 58 199 223 231 239 335 243 255 219 289 218 226 205 260 271 267 258 264 223 324 79 347 49 302 300 337 106 126 125 201 191 199 153 154 154 152 158 162 155 157
310 312 313 312 313 315 312 313 314 316 317 316 318 319 318 318 318 318 318 319 322 324 326 330 332 340 341 335 327 110 64 217 306 304 19 18 141 155 161 164 161 155 142 95 152 134 177 255 147 188 204 207 216 189 261 218 173 244 277 258 230 223 229 264 261 218 213 55 88 18 284 26 26 292 300 84 144 223 203 152 153 152 157 157 152 154 162 160
310 311 310 309 310 312 315 312 313 312 313 314 314 317 317 317 317 316 318 319 320 323 326 329 335 340 345 338 29 99 125 273 318 253 84 88 135 147 139 136 137 135 140 132 176 158 177 154 163 211 216 220 239 211 238 248 202 215 247 233 243 229 230 252 281 227 203 147 171 197 142 99 27 354 294 353 266 161 122 141 139 147 147 149 153 167 164 163
313 316 316 311 311 311 312 312 311 312 315 313 313 315 316 316 315 314 316 317 318 320 324 328 334 340 354 11 59 6 110 252 250 212 126 99 98 114 121 115 142 143 157 182 169 183 132 182 203 181 216 192 208 186 236 226 240 221 239 232 241 220 225 236 219 215 223 200 196 141 166 213 188 213 254 289 112 125 129 140 142 144 149 159 158 164 158 140
311 311 311 309 310 312 310 309 312 313 314 313 311 312 314 313 312 313 314 315 316 316 320 328 333 340 11 89 86 14 258 234 236 163 138 134 130 119 130 139 184 155 177 179 178 166 150 230 202 199 217 212 253 257 266 309 299 219 222 233 246 238 240 233 241 209 225 220 169 140 193 246 234 173 277 204 175 133 127 134 139 143 150 157 163 160 154 142
315 311 308 309 310 311 311 310 312 314 313 309 310 310 311 312 311 311 312 312 311 311 316 325 335 346 51 74 78 89 261 227 191 158 152 141 138 147 203 197 171 164 149 195 165 180 196 212 183 193 225 276 227 239 196 192 236 247 268 240 242 250 253 264 232 248 204 232 201 171 203 227 274 123 277 272 168 128 129 138 149 151 158 168 164 160 152 145
316 314 313 309 309 311 311 311 312 312 312 311 308 309 310 311 310 309 309 309 308 307 310 322 336 335 62 62 112 218 260 356 53 150 153 145 146 157 198 179 183 171 172 173 197 200 213 235 254 319 244 223 323 290 207 221 346 309 265 286 277 255 250 257 239 256 202 285 161 138 188 223 256 156 224 241 142 146 143 154 158 160 164 170 164 157 155 152
313 310 312 312 310 308 310 311 312 312 311 310 307 308 311 310 308 307 305 305 302 301 306 315 341 353 110 106 182 227 282 48 58 44 211 149 170 200 190 179 182 180 169 177 210 213 213 229 279 257 219 345 271 285 282 269 343 272 281 270 273 338 320 235 210 227 130 261 183 123 42 305 221 223 225 224 158 150 149 160 161 163 165 167 170 162 163 162
317 314 309 307 308 311 310 311 311 311 311 310 309 309 308 307 306 304 301 299 296 296 303 316 329 198 82 5 227 238 267 290 306 316 266 232 273 208 186 183 195 196 187 176 204 219 215 216 225 236 240 258 224 186 267 310 266 296 262 208 318 348 318 264 230 220 161 229 155 101 282 253 247 240 245 205 147 142 150 164 167 169 162 170 181 174 166 158
310 311 313 311 307 308 310 310 311 311 311 312 308 308 306 306 302 298 294 291 293 293 296 328 55 75 98 238 275 245 235 237 272 271 245 205 231 221 188 218 201 206 212 212 247 280 269 250 213 223 202 201 269 280 338 333 346 188 274 43 211 346 272 271 177 168 223 172 152 139 220 275 252 265 255 243 148 153 167 172 174 170 162 168 190 180 175 172
309 308 307 309 308 309 310 311 310 311 311 311 309 308 306 302 296 290 289 290 282 282 288 312 165 107 57 268 267 267 251 227 228 227 221 187 210 242 196 205 201 210 206 212 229 241 238 258 160 135 233 230 42 19 325 359 327 287 10 288 322 168 274 323 282 197 220 328 158 133 224 250 263 255 255 212 155 159 167 176 174 168 171 175 187 189 176 174
313 310 310 309 306 307 308 310 311 311 311 312 309 308 304 296 289 284 282 277 272 264 216 125 120 114 24 295 261 312 302 176 218 210 217 194 201 193 196 196 199 208 207 241 234 264 273 187 164 199 232 5 65 107 6 20 332 332 153 253 241 149 261 357 267 198 202 170 238 169 230 330 293 250 249 202 158 159 162 174 169 177 179 180 190 194 175 158
312 312 310 308 308 308 308 310 312 312 313 312 312 307 299 288 281 276 277 271 259 210 215 80 119 126 110 231 324 281 237 222 209 151 195 208 187 198 170 156 185 209 212 252 259 221 264 120 269 214 31 153 174 99 70 315 300 297 15 212 214 198 274 249 300 312 195 167 237 223 219 236 242 275 297 321 150 156 165 174 179 177 182 179 182 194 181 178
313 312 310 309 306 308 310 310 313 314 315 314 315 305 295 286 276 273 283 241 186 202 190 330 174 95 274 298 288 239 185 178 189 174 178 203 182 190 168 181 201 188 181 234 297 167 300 289 53 190 0 159 148 110 143 217 199 225 341 354 315 304 220 244 305 276 134 197 192 223 222 244 265 295 300 268 197 167 173 176 175 172 170 183 197 195 186 180
312 313 311 307 307 308 309 311 314 317 316 318 311 298 282 270 235 130 348 177 155 37 13 212 127 149 206 207 233 328 277 188 102 132 189 197 192 174 199 172 156 135 181 164 291 174 339 43 24 81 222 217 213 165 172 223 183 208 185 195 196 274 287 272 255 262 172 182 191 193 211 231 264 320 297 338 138 171 161 150 157 168 177 190 200 196 181 181
313 310 310 307 306 307 310 311 314 314 321 320 334 325 290 63 71 33 290 256 251 205 196 161 204 278 311 281 183 222 257 264 170 219 170 204 144 178 220 179 151 118 103 181 247 250 130 175 196 209 216 214 235 182 193 233 241 292 319 326 278 279 270 255 262 271 182 166 186 191 216 223 231 249 278 302 88 106 150 163 178 184 184 192 197 196 188 179
310 309 307 305 307 309 309 312 311 311 318 324 324 313 168 194 100 256 204 231 223 231 246 217 197 221 243 327 302 359 18 300 201 200 213 183 142 126 218 163 125 186 195 164 152 258 100 199 239 218 210 197 217 216 232 284 285 253 274 300 295 284 283 279 282 286 178 136 219 211 196 248 261 264 252 255 120 142 174 177 180 177 188 193 187 194 201 181
310 308 306 305 308 310 309 309 310 308 314 316 299 274 291 252 202 49 325 286 215 225 236 247 219 248 257 259 267 298 276 267 237 214 222 165 180 164 229 160 156 194 182 134 103 74 163 207 233 226 211 202 229 227 208 206 263 289 233 271 285 272 254 288 296 326 58 90 208 188 185 243 261 267 224 174 168 177 176 175 189 176 185 193 196 200 187 154
311 309 307 309 308 310 310 308 305 310 302 207 208 209 244 239 299 332 317 247 275 198 207 221 232 239 258 262 263 177 248 241 206 208 198 170 131 193 166 168 177 177 173 155 167 154 205 265 236 226 183 192 247 238 245 264 276 252 294 296 259 271 358 300 307 5 351 65 197 191 175 257 309 310 320 270 158 218 187 190 184 181 179 188 192 190 190 189
309 310 309 309 310 312 312 310 307 303 218 222 229 221 247 290 312 346 340 236 287 250 200 203 195 213 238 227 231 170 203 234 198 203 198 161 169 145 161 180 158 157 197 183 176 175 213 227 217 198 186 182 217 241 230 222 265 253 218 229 260 288 245 187 265 337 350 345 82 62 43 339 338 342 328 311 20 10 131 188 195 207 190 189 191 188 183 184
311 311 311 311 315 314 316 311 297 255 299 227 241 249 256 263 270 227 303 323 305 275 202 221 171 213 231 188 268 183 192 233 229 171 178 175 146 117 219 163 112 198 194 196 182 208 253 247 139 171 206 201 200 241 226 173 226 277 234 214 234 235 241 257 34 45 12 338 329 117 29 317 300 308 266 282 353 352 14 129 199 210 231 294 176 196 209 214
310 312 313 314 317 324 312 293 309 343 312 250 236 276 306 260 234 204 163 73 302 258 117 208 144 241 147 220 150 179 193 234 205 176 167 184 157 178 140 239 138 194 207 177 190 208 229 196 177 202 199 214 211 218 226 157 204 207 263 212 214 207 242 306 339 78 35 76 285 77 131 258 331 317 287 317 16 18 17 39 223 217 243 255 234 224 41 49
309 312 312 317 320 332 346 338 358 326 290 249 21 338 325 316 228 175 73 296 311 216 167 104 164 258 166 177 168 129 157 235 133 136 181 154 177 148 147 217 184 214 181 166 147 243 201 182 199 204 199 211 217 237 221 168 152 217 241 192 174 25 309 283 59 111 224 289 314 26 119 151 315 292 307 30 46 26 29 15 10 355 326 231 205 90 94 95
313 312 312 318 319 326 292 298 317 300 248 311 330 323 308 302 301 72 118 112 280 184 137 213 231 73 218 164 154 178 197 177 161 207 183 177 157 161 158 181 188 197 194 163 192 256 172 215 189 200 205 205 212 221 216 153 157 209 238 204 242 218 247 307 293 162 203 132 277 323 328 74 280 280 354 50 64 19 13 17 19 22 32 45 64 68 75 78
310 311 314 317 317 314 286 232 265 260 255 328 318 303 317 309 5 115 152 117 226 122 321 105 354 136 227 134 160 205 239 138 203 175 176 153 184 128 204 209 197 206 216 171 212 270 250 202 210 187 164 200 216 230 206 166 179 246 189 165 195 48 72 19 203 125 19 73 286 270 262 122 281 312 354 354 69 34 349 5 29 39 48 45 57 66 64 61
309 309 313 317 319 313 331 210 229 248 303 310 307 312 307 343 46 67 69 270 229 229 210 52 175 181 157 148 178 189 214 180 156 146 157 174 207 141 245 167 194 197 254 244 231 232 245 267 175 188 189 199 200 216 193 178 185 202 122 118 18 15 7 26 83 96 60 62 244 232 274 130 95 346 337 28 354 189 358 24 38 43 39 45 49 52 58 65
306 308 311 313 297 307 321 278 252 255 297 318 315 300 348 35 123 117 138 233 302 82 92 148 197 130 156 161 177 199 214 195 142 138 159 174 188 199 327 203 109 46 55 358 293 274 276 299 291 229 200 192 179 191 190 165 156 112 114 169 352 323 19 31 339 45 112 274 253 251 143 103 118 291 332 353 46 81 77 64 48 51 46 40 39 49 57 65
310 309 303 300 276 279 252 244 67 351 338 323 319 19 66 98 4 173 195 347 22 227 176 195 224 164 179 178 156 168 196 199 159 152 162 175 178 193 204 189 179 188 252 193 251 331 298 271 225 266 240 175 156 120 310 147 102 110 76 51 132 266 39 281 13 302 215 194 255 236 152 30 49 108 329 19 77 67 64 79 78 75 67 57 61 64 62 63
305 301 297 285 275 248 245 256 299 321 320 323 333 56 78 112 199 243 301 305 285 119 234 174 174 172 168 155 197 175 175 218 166 193 169 174 161 207 211 189 186 144 184 241 227 5 279 283 276 259 294 258 128 132 162 114 69 101 140 126 116 111 78 204 280 229 321 293 269 315 33 99 195 77 0 75 72 71 75 62 38 40 46 46 36 32 35 27
306 301 294 266 252 240 243 243 256 302 318 312 77 62 70 151 246 209 218 300 278 315 9 224 157 147 157 174 197 148 174 227 160 183 156 167 172 188 249 263 171 94 137 197 163 195 238 309 297 176 253 213 134 154 172 171 161 189 137 145 175 143 154 201 190 165 203 209 287 295 117 209 137 146 273 51 56 71 71 65 56 51 34 39 49 47 43 38
305 294 273 272 248 240 231 225 225 245 304 332 72 102 156 224 261 229 245 271 228 216 238 178 176 160 178 196 192 178 168 207 213 152 164 146 194 177 191 226 225 137 119 139 255 95 201 208 252 213 200 165 154 184 139 101 96 230 143 87 94 207 136 149 203 143 221 238 353 359 130 148 104 140 107 99 92 75 85 82 77 70 67 55 46 35 33 31
304 287 273 258 219 228 200 200 190 183 213 65 102 162 226 205 204 308 261 308 293 316 294 212 177 169 170 217 202 208 208 152 202 135 166 175 180 187 200 196 203 190 140 169 202 203 136 290 258 267 168 173 181 149 179 120 165 259 115 148 208 177 120 109 21 72 99 43 257 171 57 5 345 75 54 59 66 61 65 75 76 75 71 63 53 44 34 29
308 315 291 236 225 169 153 161 160 159 169 104 132 222 226 273 240 265 277 330 302 305 331 115 180 116 164 199 199 202 206 184 213 143 196 129 164 202 194 223 196 183 186 150 267 188 140 235 292 113 251 248 180 167 158 165 143 86 129 230 64 115 113 131 198 357 100 162 252 131 163 174 135 195 327 61 74 67 68 71 77 77 70 64 54 46 39 30
318 298 273 257 226 133 136 151 143 160 117 85 168 266 260 268 341 308 295 310 304 327 54 65 47 40 98 95 275 206 181 173 188 179 182 172 241 231 193 209 219 198 191 175 156 276 158 283 300 243 228 180 124 112 56 328 81 151 186 188 124 259 222 313 97 150 109 207 234 19 11 309 148 180 327 86 94 88 83 79 70 59 50 51 49 45 43 43
290 297 315 248 146 132 139 150 145 130 70 88 263 238 269 268 285 267 283 285 242 320 67 42 111 318 119 56 251 269 176 180 177 183 127 204 118 7 127 222 230 222 193 161 175 219 69 150 294 306 22 190 108 110 199 234 334 1 67 81 200 104 150 149 201 175 126 231 112 291 76 191 211 204 179 115 108 103 89 76 69 63 54 49 46 38 35 33
251 288 282 87 129 125 138 148 118 83 90 189 207 239 288 298 279 289 267 103 4 66 2 86 342 42 25 132 29 342 304 135 174 195 107 176 111 261 17 354 55 303 158 175 185 161 231 123 214 275 311 42 105 156 199 174 176 180 170 313 76 205 210 124 123 141 175 181 179 154 260 278 258 276 139 118 96 97 94 85 77 72 66 62 61 52 39 38
227 285 15 110 130 126 133 131 80 149 180 265 229 274 295 285 320 303 294 349 110 208 144 121 91 56 249 15 353 340 337 32 78 206 133 75 104 140 286 274 258 356 29 106 82 357 100 168 197 299 7 21 228 227 196 180 165 164 168 193 180 168 198 182 257 349 105 129 203 133 221 277 268 50 121 115 94 84 76 83 78 70 67 58 40 44 46 42
288 77 80 133 143 139 123 97 290 186 235 224 221 237 272 318 287 282 310 305 112 16 350 108 353 137 44 57 35 351 359 26 11 85 14 118 28 123 277 310 84 62 98 80 161 210 149 160 122 215 218 198 208 57 52 28 73 78 85 5 269 175 116 119 196 266 30 62 100 137 113 281 253 124 108 83 73 76 75 83 84 75 70 59 35 33 41 42
266 302 267 115 180 169 85 61 264 206 247 242 252 272 265 262 237 272 343 346 357 64 25 53 157 61 8 68 357 18 6 56 20 92 118 70 59 0 302 103 107 70 76 359 29 294 93 66 193 289 309 302 34 74 53 42 72 49 25 11 34 45 205 167 169 184 131 154 83 34 67 229 275 104 90 94 90 83 70 64 80 76 74 64 40 24 21 26
340 26 325 305 190 189 86 160 223 261 266 269 246 257 260 258 275 310 27 342 17 356 26 346 1 63 71 16 57 28 9 85 8 83 58 48 59 334 2 62 78 54 79 230 122 258 75 304 122 57 357 337 345 341 39 18 55 83 341 334 314 313 75 129 107 57 92 256 182 116 169 201 173 103 99 91 81 68 56 50 57 71 61 55 55 46 33 26
305 254 260 292 342 112 167 200 131 226 260 300 292 279 294 269 243 155 115 352 7 34 27 1 346 286 51 27 52 45 33 57 130 358 89 78 110 9 10 30 75 86 52 143 185 19 88 117 91 148 180 187 215 196 215 3 59 1 27 335 344 36 12 63 121 26 99 251 98 100 127 165 111 99 97 89 88 73 55 56 55 55 54 42 39 34 22 23
152 123 276 307 335 144 281 261 256 224 278 278 333 269 227 306 330 24 66 330 53 41 134 291 338 78 44 46 34 32 26 36 76 308 42 22 14 25 8 24 51 88 59 45 20 69 99 59 82 151 157 183 187 152 225 130 53 66 329 25 341 350 26 91 99 89 148 184 84 177 147 133 118 106 89 81 68 65 52 42 39 33 30 34 34 29 28 27
318 154 147 142 354 203 245 303 270 134 219 215 281 287 328 312 258 346 8 73 20 42 7 50 343 48 331 64 1 46 10 68 42 70 22 77 329 256 319 53 64 68 70 48 355 74 59 54 352 78 91 131 119 84 105 117 108 64 61 5 9 18 18 72 96 203 164 94 49 112 144 119 116 105 92 80 70 62 50 42 39 33 24 18 15 11 20 27
112 278 289 212 149 218 203 283 221 239 257 296 269 284 283 16 9 52 332 351 19 23 90 328 28 31 23 155 128 67 28 65 28 70 326 12 15 349 30 359 55 18 61 40 353 100 119 101 321 66 44 87 94 108 104 80 77 94 69 47 33 23 47 71 1 342 55 144 178 157 138 111 106 90 93 81 79 81 65 53 47 42 35 26 15 15 23 24
236 239 252 270 135 252 184 221 266 220 250 207 271 274 331 59 22 50 82 334 24 356 67 77 358 34 45 45 89 98 359 73 5 326 108 1 50 21 19 348 8 32 64 46 25 70 90 34 307 70 81 62 92 95 95 101 97 65 49 43 39 50 55 69 70 18 47 83 126 120 98 93 101 102 85 83 81 78 69 56 54 48 44 35 26 26 33 24
142 102 311 342 294 286 293 328 250 206 254 233 225 285 187 164 14 347 12 79 16 332 26 88 66 52 47 53 66 87 13 169 172 127 320 99 350 64 152 177 260 335 59 71 46 334 95 238 331 27 80 34 30 69 76 91 94 76 35 32 28 49 54 40 55 22 42 61 88 99 101 90 67 88 87 76 77 81 70 59 55 55 54 50 44 42 36 29
307 323 340 331 337 266 214 203 250 200 208 304 112 278 38 50 214 156 127 83 145 165 63 142 148 67 45 58 52 62 59 94 99 99 150 129 105 225 114 287 112 61 17 50 60 338 70 167 29 65 87 42 8 45 85 88 81 72 40 20 12 17 44 9 34 328 116 132 116 100 91 111 116 92 83 77 76 73 73 63 52 46 47 47 48 46 41 29
272 252 241 180 264 281 306 277 281 100 196 232 171 229 188 242 221 116 57 330 37 74 122 139 147 93 33 64 47 32 4 30 314 276 230 179 195 197 135 172 134 136 132 83 214 83 114 130 103 91 79 150 232 174 283 301 55 37 7 337 339 43 97 77 38 33 25 98 118 128 119 121 129 119 97 81 76 69 63 63 65 51 40 41 44 46 42 33